Wind_Speed
1 0 4 3 1 2 2 2 2 5 5 1 6 4 5 2 1 2 4 6 18 18 16 13 11 12 12 11 12 13 13 12 13 14 14 14 15 17 16 15 18 21 22 22 22 23 23 23 23
3 1 3 2 2 2 2 2 2 2 5 11 8 4 2 2 2 7 10 10 19 18 16 13 11 12 12 11 11 12 12 14 14 15 15 14 16 17 17 18 19 22 23 22 23 23 24 24 24
1 2 0 3 2 2 2 3 8 11 10 3 4 3 1 2 3 13 8 17 19 17 15 13 11 12 11 11 11 12 12 13 14 15 14 15 16 18 19 22 23 26 24 23 23 23 24 24 24
1 1 3 3 3 2 1 5 9 11 2 2 5 4 3 3 9 9 17 20 19 17 14 12 13 12 11 11 11 13 13 14 14 13 14 16 17 18 20 23 24 24 23 22 23 23 23 24 24
4 2 3 3 1 2 3 7 13 8 5 5 4 5 3 3 7 15 20 20 19 17 14 13 13 12 11 11 11 12 13 15 14 14 14 15 17 18 19 23 23 22 22 21 21 22 22 22 21
2 1 2 1 2 2 2 9 11 6 6 6 4 8 5 3 13 17 20 19 17 17 15 14 13 12 11 12 12 13 13 13 14 15 17 18 19 20 20 22 23 20 20 20 20 21 21 20 20
2 2 2 1 2 2 4 11 9 8 7 6 9 7 3 10 13 19 19 17 18 17 15 14 13 12 11 11 12 13 13 14 15 17 20 22 24 23 22 22 21 20 19 18 19 19 19 18 18
3 2 2 2 2 2 4 10 5 9 5 7 8 5 4 14 18 19 15 19 17 17 16 15 14 13 12 12 13 14 15 15 17 21 21 23 23 23 24 23 21 18 17 18 18 17 17 17 18
2 1 1 3 5 2 5 7 3 2 8 5 8 3 4 28 24 18 17 18 16 15 15 16 15 14 14 13 13 15 17 19 21 22 22 23 20 20 20 23 22 19 18 18 17 16 16 17 17
2 2 4 4 4 3 6 7 10 6 5 6 5 7 20 28 25 22 22 19 19 16 15 15 16 16 17 14 17 17 18 18 21 21 22 22 21 19 20 22 21 20 18 16 14 14 14 13 12
4 4 3 5 9 5 4 5 7 6 7 10 15 17 22 26 24 23 22 20 20 18 15 16 17 18 19 18 19 17 18 19 21 21 21 21 22 22 21 20 19 18 15 13 11 10 9 10 10
4 8 6 4 5 7 7 5 6 11 12 3 9 22 24 22 24 24 22 22 20 18 16 18 18 19 19 20 17 17 17 19 21 19 18 16 17 18 17 15 14 13 12 12 10 8 8 8 10
6 5 3 6 5 6 8 9 6 12 2 4 18 21 20 20 22 21 21 20 20 20 18 20 20 20 20 22 20 17 17 19 20 17 14 12 15 16 15 15 14 14 13 11 11 9 6 7 7
3 4 3 3 6 3 6 3 6 2 5 9 14 16 17 20 24 22 21 23 22 21 20 23 23 22 22 23 19 17 17 19 17 14 13 12 16 17 16 14 13 12 10 10 9 9 9 8 7
3 3 2 4 4 3 6 3 7 1 7 9 11 12 14 18 23 25 22 22 23 21 23 26 26 25 24 22 19 17 19 19 15 12 12 15 16 15 15 14 12 11 10 10 9 9 8 7 6
2 1 3 3 4 1 4 11 6 3 8 9 10 11 14 16 22 18 19 20 21 20 23 28 25 27 26 23 19 17 18 18 14 13 13 18 17 15 15 14 12 10 9 9 8 8 9 9 9
2 5 5 4 2 4 4 4 1 4 7 8 10 11 13 14 17 18 20 22 24 25 26 29 27 28 28 24 20 17 17 17 15 16 17 17 16 15 13 13 12 10 8 8 8 9 9 11 11
5 4 3 5 2 3 4 11 7 7 8 9 10 11 13 14 16 20 22 22 22 25 28 30 30 30 29 26 22 19 18 18 18 19 19 18 17 16 14 12 11 9 8 9 9 10 11 12 12
5 4 4 4 2 3 6 10 8 6 8 12 10 11 12 13 14 18 21 23 23 25 25 29 31 32 32 27 22 17 17 20 20 20 20 20 19 17 15 12 11 9 8 8 9 12 12 12 12
7 6 6 6 3 6 2 7 6 5 7 13 11 12 13 12 12 19 22 23 26 26 27 27 28 31 33 26 24 20 21 20 20 21 22 21 20 18 15 12 11 10 10 9 7 7 9 7 8
7 9 7 8 0 5 2 4 5 2 8 9 11 12 13 16 16 16 23 25 24 26 28 30 30 31 33 28 28 22 24 20 18 20 22 22 20 19 16 13 11 11 10 9 7 7 5 5 3
10 11 7 7 3 7 2 5 4 4 9 9 14 13 13 15 16 16 22 24 26 27 27 28 30 33 32 34 29 28 22 20 18 21 21 23 22 21 18 15 12 11 10 9 8 7 5 4 4
9 6 10 8 7 3 4 4 3 2 7 15 13 13 12 16 17 18 24 26 25 24 27 28 30 31 34 38 33 32 25 22 20 21 22 24 24 22 20 17 15 13 10 8 8 7 5 4 4
7 6 4 2 3 6 7 7 5 5 6 5 6 10 11 15 17 18 21 21 22 22 25 28 30 32 36 37 34 36 31 31 23 21 21 21 22 23 21 20 17 15 11 10 9 8 6 5 4
6 6 2 4 5 6 4 5 8 5 8 10 11 8 6 12 15 15 16 22 23 26 27 28 31 32 33 38 35 36 38 36 29 27 24 22 21 23 25 24 21 16 13 10 8 8 6 5 6
10 12 5 10 6 7 2 6 4 5 5 9 10 9 4 10 11 14 18 24 25 26 28 29 32 33 33 35 35 34 38 32 28 29 26 25 25 25 27 26 23 19 15 13 11 8 7 6 6
5 8 4 5 2 3 5 4 7 4 7 6 6 5 7 8 11 13 16 21 23 26 28 31 31 32 32 35 34 34 34 32 30 29 31 29 26 24 26 26 23 20 17 16 13 10 8 7 7
12 11 5 0 7 8 4 4 7 5 8 5 6 9 8 7 8 10 13 17 20 24 26 28 30 33 33 34 36 36 37 36 33 33 33 31 28 27 27 27 25 22 20 17 16 14 11 8 8
6 6 2 5 3 10 10 6 8 11 11 9 7 8 5 4 5 4 7 14 19 22 25 28 28 29 29 31 32 32 34 34 33 35 36 36 32 31 30 29 27 25 24 23 19 17 13 11 10
20 14 9 6 7 1 2 8 4 12 8 8 7 3 3 5 5 6 7 12 16 21 23 26 27 29 30 29 28 31 30 31 32 34 35 36 36 33 33 31 30 30 28 26 23 21 16 15 13
Wind_Direction
322 34 140 118 186 72 80 132 280 133 157 129 135 191 206 49 182 347 129 155 148 145 144 143 144 132 126 119 111 110 113 108 104 101 99 100 102 106 112 114 107 109 99 95 89 84 81 78 77
9 116 104 110 95 106 125 267 177 166 119 120 109 135 175 134 100 119 134 152 152 144 143 141 142 133 130 124 119 115 115 114 110 106 105 102 103 102 100 105 110 109 101 95 90 87 83 82 81
71 60 3 73 95 120 145 173 140 129 143 154 129 46 121 108 106 148 143 150 149 142 141 142 145 140 134 130 128 126 124 121 122 114 114 105 103 103 106 108 109 106 102 97 92 90 89 85 82
76 111 83 69 102 178 196 146 152 148 172 134 128 115 117 271 160 160 146 148 147 144 143 156 148 143 139 135 127 128 124 125 121 122 113 108 105 100 113 114 112 110 105 99 95 93 89 86 84
54 71 76 87 243 262 211 179 169 158 138 156 162 158 108 96 136 148 150 152 148 147 150 148 148 144 137 132 127 131 131 131 129 117 109 107 109 107 114 120 116 115 107 102 97 94 89 86 86
105 144 83 116 245 259 261 173 172 174 148 150 133 148 134 139 147 154 153 152 153 153 152 146 149 147 143 133 131 134 140 139 132 120 114 111 114 114 114 120 124 123 110 102 98 94 90 89 86
85 54 92 266 270 261 194 163 197 170 164 192 148 152 150 175 168 155 154 157 156 160 152 148 145 145 146 138 134 132 138 135 129 127 124 119 117 111 109 120 126 119 110 104 100 95 89 86 80
94 92 128 214 218 268 158 173 207 178 178 116 159 192 179 181 161 153 158 161 158 159 158 152 148 146 139 134 134 132 133 133 129 124 122 122 118 114 110 115 122 117 111 105 102 96 96 91 87
147 55 232 212 184 213 167 191 150 120 136 185 181 164 122 151 153 151 156 159 159 162 161 157 155 156 147 134 130 127 131 134 132 124 120 122 115 108 105 115 121 119 111 108 104 102 103 100 97
126 198 234 209 204 228 188 203 168 177 163 193 168 80 137 151 158 160 166 165 170 169 167 165 163 158 151 143 141 136 135 134 135 128 123 119 118 115 114 115 115 115 114 108 102 102 104 101 101
165 233 213 242 217 215 193 209 176 177 206 206 206 156 156 160 167 171 173 177 175 172 169 171 167 162 158 151 146 140 139 140 141 137 129 122 121 120 118 117 114 113 112 110 107 103 101 105 107
221 244 242 261 207 184 173 157 204 209 236 247 201 157 160 170 172 174 175 177 175 175 173 174 170 165 161 156 148 145 143 144 143 141 136 133 129 129 125 120 118 116 111 108 106 104 110 113 112
227 274 200 242 200 195 156 204 212 233 282 71 139 155 165 169 176 179 181 179 174 176 179 176 173 169 166 160 153 150 147 148 146 143 139 141 147 138 129 122 117 114 110 102 99 95 108 125 121
203 244 235 223 184 207 191 212 192 227 158 133 150 164 169 175 177 178 183 180 180 177 180 179 175 173 171 167 163 160 158 155 154 153 153 147 146 143 136 130 122 118 113 104 95 89 93 112 121
145 217 262 210 184 201 186 202 230 80 170 164 168 169 173 180 180 190 184 180 179 181 178 182 177 176 176 175 171 168 165 166 164 171 177 170 162 154 143 139 132 124 117 109 99 89 89 103 116
143 72 204 149 169 50 243 260 277 155 182 186 178 176 177 186 190 187 186 181 181 175 183 183 182 180 179 182 179 177 174 176 171 169 169 170 170 165 153 146 137 127 124 117 107 89 85 88 98
37 192 209 297 169 138 212 267 285 196 214 204 191 186 182 188 190 187 187 185 181 183 183 186 187 185 185 186 185 181 179 179 178 172 168 171 174 170 162 152 141 134 129 124 108 97 88 97 97
173 196 213 232 142 183 199 256 263 215 222 229 205 194 187 194 192 189 189 189 184 187 189 189 191 191 189 189 189 187 189 192 188 181 182 182 182 177 173 161 151 145 140 124 113 105 105 111 112
180 193 215 238 235 261 243 261 269 247 227 238 212 207 197 202 189 189 192 191 189 190 186 192 192 193 190 191 185 186 186 190 190 189 189 189 188 185 181 172 164 157 149 133 120 116 117 114 123
181 195 223 283 261 221 207 272 287 263 244 240 229 215 202 190 185 190 194 192 193 189 190 193 196 196 197 195 195 191 187 189 191 188 188 189 190 190 189 187 176 171 165 158 146 142 144 142 174
198 206 218 239 231 228 229 253 260 249 255 253 240 229 205 194 193 192 195 197 194 193 193 194 195 198 198 199 201 200 195 192 187 188 189 191 194 195 194 192 188 176 169 167 170 179 180 162 183
205 210 207 231 257 261 271 252 241 258 278 256 253 229 205 197 202 197 196 197 198 199 197 195 196 197 199 203 203 204 196 192 196 194 193 193 195 195 194 196 195 188 178 170 174 178 187 176 166
219 163 211 234 224 241 199 234 219 301 264 256 263 241 206 201 196 200 201 201 202 198 196 196 197 198 201 207 207 206 204 200 197 195 194 194 194 198 197 201 200 197 192 187 180 170 170 176 172
150 171 81 82 171 230 205 215 227 210 234 274 269 254 202 194 202 206 203 198 198 198 194 194 196 200 202 206 208 211 201 198 192 190 191 192 194 197 201 204 203 202 198 200 184 171 157 150 142
174 147 203 204 202 230 183 178 251 240 244 253 276 284 211 193 196 196 190 191 193 194 194 196 198 200 201 204 207 209 209 208 201 195 193 191 193 197 201 204 202 201 201 200 194 178 162 149 139
184 187 189 207 205 216 160 222 225 220 263 273 270 273 260 195 202 202 199 197 193 193 195 197 200 202 200 202 206 207 210 205 206 205 197 200 203 205 204 203 204 205 200 200 201 187 175 159 148
171 200 171 106 46 181 195 255 270 239 263 276 261 251 245 218 204 208 202 199 192 193 197 200 201 205 203 203 203 205 207 204 205 206 208 208 207 206 205 204 204 204 203 200 197 198 184 169 162
197 155 154 128 171 225 207 238 217 213 224 250 247 234 250 226 208 207 205 198 195 198 200 204 206 206 205 203 203 202 206 210 210 212 209 209 209 206 203 200 203 206 204 206 199 193 186 183 181
161 178 112 132 171 222 230 231 214 200 201 209 223 221 224 237 246 228 205 195 196 198 199 204 205 207 208 205 204 203 206 207 210 213 214 213 212 208 205 202 206 209 209 204 201 197 192 193 193
206 195 185 189 191 211 229 219 192 219 222 211 204 193 224 246 254 244 210 193 193 198 200 203 206 207 207 206 203 205 205 209 208 211 214 213 212 212 209 206 208 210 207 209 205 200 199 196 199
Height
804 804 805 806 818 818 835 833 823 826 826 825 826 831 831 834 834 842 844 846 848 851 855 857 858 859 861 863 863 864 864 866 867 868 868 868 868 869 870 870 871 871 872 873 874 874 874 873 872
802 803 804 809 823 832 835 824 826 824 825 825 827 831 831 833 837 842 845 847 850 852 855 858 859 861 862 863 864 865 866 866 868 869 871 872 871 871 872 872 873 874 875 877 877 877 877 877 876
802 802 803 815 829 830 829 823 824 825 825 824 829 830 832 835 840 842 843 846 850 853 856 859 860 862 864 865 865 866 867 868 869 871 872 874 875 874 874 874 876 877 879 880 880 880 880 880 879
802 803 808 822 830 824 822 820 819 825 825 824 826 834 835 837 838 841 843 847 851 854 857 859 861 863 864 866 867 868 870 871 873 874 875 876 877 878 877 878 879 880 882 882 883 883 883 883 882
801 805 822 831 828 822 816 813 817 821 823 825 826 833 836 838 839 841 844 848 851 855 857 860 862 864 866 867 869 870 871 873 874 875 877 878 879 879 881 881 882 883 884 885 885 886 886 886 886
804 808 820 832 827 818 814 811 814 817 821 826 828 832 835 839 840 842 846 849 852 855 858 861 863 865 866 868 870 872 874 874 876 877 878 879 881 882 883 884 885 886 887 888 889 889 890 890 890
806 812 826 829 827 821 811 809 812 815 819 821 822 831 836 838 840 843 847 849 853 856 859 862 865 867 868 869 871 873 876 877 878 879 880 881 883 884 885 887 889 890 891 891 892 892 893 893 893
806 812 827 828 824 817 807 807 804 809 815 818 820 823 828 832 840 845 847 850 853 855 859 862 865 868 870 871 872 874 876 879 881 881 883 885 886 887 888 888 891 894 895 895 895 895 896 896 896
806 817 826 822 825 812 806 808 808 809 812 815 816 818 821 828 837 843 848 851 855 858 860 862 865 867 870 873 875 876 878 880 882 884 885 886 888 891 891 892 893 894 897 898 898 898 899 899 899
808 820 815 807 806 804 804 804 805 808 811 813 817 822 824 830 836 841 846 850 854 858 861 863 865 868 871 873 875 877 880 882 885 887 888 889 891 892 894 895 896 896 898 900 901 901 901 901 902
810 810 806 802 799 799 800 804 802 805 812 801 803 818 824 829 835 839 845 850 853 858 861 864 866 868 870 873 876 878 880 883 886 888 889 891 893 895 897 897 898 899 900 901 902 903 903 902 903
810 800 801 796 797 800 801 798 801 801 788 792 797 808 820 827 831 836 842 847 852 857 861 864 867 870 872 874 877 880 882 884 887 890 891 893 895 896 898 900 900 901 901 902 903 903 903 903 904
806 798 797 794 795 796 796 797 797 795 795 797 802 811 817 825 831 837 841 846 851 855 860 863 867 870 873 875 877 881 883 886 888 891 893 894 896 898 899 900 901 902 903 903 903 903 904 904 905
797 797 795 794 794 794 797 799 799 791 796 802 807 812 817 823 828 835 839 843 848 853 858 862 866 870 874 876 878 881 884 887 890 892 893 895 896 898 899 901 902 903 904 904 904 904 904 905 906
796 802 798 796 795 796 794 801 797 794 798 804 808 814 818 823 826 830 837 842 847 851 856 861 864 869 874 877 878 881 883 886 889 891 894 895 897 899 900 901 902 903 903 904 905 905 905 905 905
800 802 805 796 796 797 796 803 789 796 798 803 809 813 818 822 824 833 838 842 847 851 854 859 863 866 871 876 879 881 883 886 888 890 892 895 897 898 899 901 902 903 904 904 904 905 906 906 905
808 809 811 802 796 796 799 799 791 798 799 802 806 810 815 819 825 830 835 838 842 846 851 856 861 865 869 874 878 881 883 886 888 889 892 895 897 899 900 901 902 903 904 904 904 904 906 907 907
812 812 812 807 797 799 801 795 789 794 798 799 804 807 812 816 820 826 831 836 840 843 848 853 858 862 867 872 875 878 881 884 886 888 891 894 897 899 900 901 903 903 904 904 904 905 906 907 909
800 806 806 799 796 800 798 795 787 790 798 797 802 805 810 815 819 824 828 832 836 839 845 849 854 859 864 868 871 875 878 881 885 887 889 891 895 897 899 901 902 903 904 904 905 905 906 908 910
799 804 805 798 796 802 799 794 792 793 792 791 795 801 806 813 818 820 823 828 831 835 841 847 853 857 861 867 870 873 876 879 883 885 888 890 893 895 898 899 901 902 903 904 905 905 906 908 909
800 802 803 801 800 798 797 796 794 789 791 791 791 793 799 804 810 815 819 822 827 832 836 841 848 853 858 864 868 872 874 878 880 883 885 888 891 893 895 897 899 900 902 903 904 905 905 906 907
803 792 795 799 805 807 799 808 796 791 788 785 778 784 792 798 803 808 813 817 821 825 831 837 843 847 854 859 864 867 871 874 877 879 883 885 888 891 893 895 897 899 900 901 902 903 904 904 905
787 787 791 794 803 804 803 805 788 799 786 773 767 773 783 790 794 799 804 809 815 821 825 831 837 843 847 852 857 862 867 871 873 877 880 883 886 888 890 893 895 896 897 898 900 901 902 902 904
778 788 799 805 805 815 795 798 790 785 778 772 766 764 772 782 787 792 799 806 810 816 820 825 830 836 841 846 852 855 859 863 868 873 877 880 883 886 888 890 893 894 895 896 897 899 900 900 901
777 791 813 818 818 809 799 806 784 769 770 769 763 760 766 774 780 786 793 798 803 808 812 818 823 828 834 839 844 849 853 859 863 867 872 876 879 880 883 886 889 892 893 896 897 897 898 899 899
780 781 800 811 811 800 806 799 780 766 764 764 763 762 764 769 773 778 783 790 795 801 806 811 815 821 826 833 837 843 847 853 859 862 866 870 873 876 880 883 886 888 890 892 895 897 897 897 898
781 784 775 801 815 805 792 787 770 766 763 760 759 762 761 763 767 772 778 784 790 795 799 803 809 815 820 824 831 836 842 847 851 856 861 864 868 872 876 880 884 887 889 889 892 895 896 897 897
757 766 786 799 812 807 795 795 775 768 762 758 758 758 757 761 764 768 773 779 784 789 794 798 803 807 812 818 823 828 833 839 845 850 854 859 863 866 870 875 878 882 885 889 889 891 893 895 896
765 770 778 774 786 783 790 782 760 753 751 754 753 754 755 758 760 765 770 775 779 783 787 790 796 802 808 813 818 823 827 832 838 842 846 852 857 860 864 867 872 876 881 882 884 886 889 891 894
735 748 754 771 791 794 782 770 750 749 750 752 750 756 757 757 759 761 765 769 773 776 781 784 789 794 800 806 812 817 822 827 831 835 841 845 850 854 858 862 867 868 872 877 879 882 884 887 890